TimeMST,TemperatureF,Dew PointF,Humidity,Sea Level PressureIn,VisibilityMPH,Wind Direction,Wind SpeedMPH,Gust SpeedMPH,PrecipitationIn,Events,Conditions,WindDirDegrees,DateUTC
12:53 AM,27.0,19.0,72,30.10,10.0,SSW,10.4,-,N/A,,Partly Cloudy,210,2012-11-22 07:53:00
1:53 AM,27.0,18.0,69,30.12,10.0,SW,10.4,-,N/A,,Scattered Clouds,230,2012-11-22 08:53:00
2:53 AM,27.0,16.0,63,30.16,10.0,WSW,5.8,-,N/A,,Partly Cloudy,240,2012-11-22 09:53:00
3:53 AM,27.0,15.1,61,30.22,10.0,NW,3.5,-,N/A,,Overcast,320,2012-11-22 10:53:00
4:53 AM,24.8,14.0,64,30.16,10.0,Calm,Calm,-,N/A,,Partly Cloudy,0,2012-11-22 11:53:00
5:53 AM,24.1,14.0,65,30.31,10.0,Calm,Calm,-,N/A,,Mostly Cloudy,0,2012-11-22 12:53:00
6:53 AM,25.0,14.0,63,30.35,10.0,Calm,Calm,-,N/A,,Overcast,0,2012-11-22 13:53:00
7:53 AM,25.0,14.0,63,30.40,10.0,Calm,Calm,-,N/A,,Overcast,0,2012-11-22 14:53:00
8:53 AM,26.1,12.9,58,30.43,10.0,WSW,8.1,-,N/A,,Mostly Cloudy,250,2012-11-22 15:53:00
9:53 AM,28.0,12.9,53,30.45,10.0,West,6.9,-,N/A,,Mostly Cloudy,260,2012-11-22 16:53:00
10:53 AM,28.9,12.9,51,30.47,10.0,WSW,10.4,-,N/A,,Partly Cloudy,250,2012-11-22 17:53:00
11:53 AM,30.0,14.0,51,30.47,10.0,WNW,9.2,-,N/A,,Clear,290,2012-11-22 18:53:00
12:53 PM,30.0,14.0,51,30.47,10.0,WNW,5.8,-,N/A,,Clear,300,2012-11-22 19:53:00
1:53 PM,30.9,12.9,47,30.48,10.0,NW,8.1,-,N/A,,Clear,310,2012-11-22 20:53:00
2:53 PM,32.0,14.0,48,30.48,10.0,NW,8.1,-,N/A,,Clear,310,2012-11-22 21:53:00
3:53 PM,30.9,14.0,50,30.51,10.0,NW,4.6,-,N/A,,Clear,310,2012-11-22 22:53:00
4:53 PM,28.9,15.1,56,30.53,10.0,NW,4.6,-,N/A,,Clear,310,2012-11-22 23:53:00
5:53 PM,28.9,16.0,58,30.55,10.0,Calm,Calm,-,N/A,,Clear,0,2012-11-23 00:53:00
6:53 PM,27.0,18.0,69,30.56,10.0,Calm,Calm,-,N/A,,Clear,0,2012-11-23 01:53:00
7:53 PM,25.0,18.0,75,30.57,10.0,SSE,4.6,-,N/A,,Clear,150,2012-11-23 02:53:00
8:53 PM,21.9,17.1,82,30.58,10.0,Calm,Calm,-,N/A,,Clear,0,2012-11-23 03:53:00
9:53 PM,19.0,15.1,85,30.59,10.0,ESE,4.6,-,N/A,,Clear,120,2012-11-23 04:53:00
10:53 PM,19.0,12.9,77,30.58,10.0,Calm,Calm,-,N/A,,Clear,0,2012-11-23 05:53:00
11:53 PM,17.1,12.0,81,30.57,10.0,ESE,5.8,-,N/A,,Clear,120,2012-11-23 06:53:00